STARLINK-32710, 62604

Orbit data source: Space-Track

STARLINK-32710, 62604 is a payload satellite owned by SpaceX/Seattle (US) in LEO that was launched on Mon, 13 Jan 2025 UTC via an FALCON 9 launch vehicle from the Air Force Eastern Test Range (AFETR). Payload-class satellites include a variety of spacecraft equipped with specific instruments for various scientific and technological missions. These include communications satellites like Starlink; space stations such as the ISS; scientific satellites like the Hubble; Earth observation satellites from companies like Planet Labs, Umbra, and HawkEye 360; GPS; miniature CubeSats for education and research; and military/defense satellites.

Loading next visibility...
Identifier
62604, 2025-008T
Orbit
LEO
Country
Flag of USUS
Related business
Manufacturer
SpaceX/Seattle
Mission
Operational Commercial Communications
Bus & Motor
STARLINK V2M, Unknown motor
Mass
730 kg wet, ~700 kg dry
Launch date (UTC)
2025-01-13 (1 year ago)
Launch vehicle
FALCON 9
Launch site
Air Force Eastern Test Range (AFETR)
Object type
Payload
Rocket body
Debris
Shape & HBR
Box + 2 Pan, 17.7 m
Radar Cross Section
33.884 m², Large (>1 m²)

Expand to show TLE details & history
Last TLE update: 18 hours ago

TLE from 18 hours ago
0 STARLINK-32710
1 62604U 25008T   26037.20863701  .00036901  00000-0  13456-2 0  9998
2 62604  42.9981  95.3698 0001066 209.4191 150.6601 15.27533975 60756
Epoch: 2026-02-06T05:00Z
TLE epoch observation values (Epoch: 2026-02-06T05:00:26.237Z)
Latitude
-0.00001°
Longitude
-116.08933°
Altitude
483.6 km
Speed
7.625 km/s
True Right ascension
06h 21m 28s
True Declination
0° 00' 00"
Sunlit
Object was in full shadow at epoch
Visualization orbit readout
Latitude
Unknown
Longitude
Unknown
Altitude
Unknown
Speed
Unknown
Apparent Right ascension
Unknown
Apparent Declination
Unknown
Sunlit
N/A
Visualization observer readout
Local Sidereal Time
01:05:35
Azimuth
Unknown
Elevation
Unknown
Doppler factor
Unknown
Orbital elements
Apogee altitude
485.864 km
Perigee altitude
484.401 km
Semi-major axis
6,863.269 km
Eccentricity
0.00011
Inclination
42.9981°
RAAN
95.3698°
Arg. of periapsis
209.4191°
True anomaly
150.66608°
Mean anomaly
150.6601°
Eccentric anomaly
150.66309°
Mean motion
3.81721 °/min
Orbital period
94.31 mins
BSTAR
0.0013456
Loading maneuver chart data...
Computing Atmospheric mass density...
Loading historical data...
Loading historical data...
Loading historical data...
Loading historical data...
Loading historical data...
Loading historical data...
Loading historical data...

Documentation

Showing up to 5 results
|